This demonstration page uses our WeatherBlox Daily Observations layout. Learn more.

Left ArrowRight Arrow

44.89941, -97.11507

Hourly Observations for April 17, 2019

Temp ( °F °C ) Dew Point ( °F °C ) Humidity (%) Winds ( mph kmh ) Pressure ( in mb ) Visibility ( mi km ) Precip ( " mm )
12:53 am 00:53 Mostly Cloudy 46 7.8 32 0 58 58 ENE 8 13 29.87 1011 10 16 0.00 0.00
1:53 am 01:53 Clear 45 7.2 33 0.6 63 63 ENE 9 15 29.85 1011 10 16 0.00 0.00
2:53 am 02:53 Cloudy 45 7.2 34 1.1 66 66 NE 8 13 29.82 1010 10 16 0.00 0.00
3:53 am 03:53 Cloudy 45 7.2 35 1.7 68 68 ENE 7 11 29.80 1009 10 16 0.00 0.00
4:53 am 04:53 Mostly Cloudy 44 6.7 36 2.2 73 73 E 8 13 29.75 1008 10 16 0.00 0.00
5:53 am 05:53 Cloudy 43 6.1 35 1.7 74 74 N 15 24 29.78 1008 10 16 0.00 0.00
6:53 am 06:53 Cloudy 44 6.7 34 1.1 68 68 NNE 20 31 29.74 1007 10 16 0.00 0.00
7:53 am 07:53 Cloudy 42 5.6 34 1.1 73 73 NE 16 26 29.73 1007 10 16 0.00 0.00
8:13 am 08:13 Cloudy 42 5.6 34 1.1 73 73 NNE 12 19 29.76 1008 10 16 0.00 0.00
8:20 am 08:20 Cloudy with Nearby Thunderstorms 42 5.6 34 1.1 73 73 NNE 10 17 29.77 1008 10 16 0.00 0.00
8:39 am 08:39 Cloudy with Thunderstorms 41 5 35 1.7 79 79 NE 16 26 29.76 1008 3 5 0.04 1.02
8:53 am 08:53 Cloudy with Strong Thunderstorms 40 4.4 36 2.2 86 86 NNE 12 19 29.75 1008 2 3 0.16 4.06
9:02 am 09:02 Cloudy with Strong Thunderstorms 40 4.4 37 2.8 89 89 NNE 8 13 29.78 1008 1 2 0.14 3.56
9:10 am 09:10 Cloudy with Thunderstorms 40 4.4 37 2.8 89 89 N 12 19 29.79 1009 2 3 0.17 4.32
9:18 am 09:18 Cloudy with Light Rain 40 4.4 37 2.8 89 89 N 13 20 29.79 1009 9 14 0.17 4.32
9:53 am 09:53 Cloudy 40 4.4 37 2.8 89 89 N 16 26 29.74 1007 10 16 0.18 4.57
10:15 am 10:15 Cloudy 40 4.4 37 2.8 89 89 NNE 15 24 29.75 1007 10 16 0.00 0.03
10:53 am 10:53 Cloudy with Light Rain 40 4.4 37 2.8 89 89 NNE 18 30 29.70 1006 10 16 0.01 0.25
11:53 am 11:53 Cloudy with Light Rain 40 4.4 37 2.8 89 89 NE 25 41 29.68 1005 10 16 0.07 1.78
12:53 pm 12:53 Cloudy 41 5 37 2.8 86 86 NE 15 24 29.71 1006 10 16 0.00 0.03
1:20 pm 13:20 Cloudy with Light Rain 40 4.4 37 2.8 89 89 NNE 17 28 29.74 1007 8 13 0.00 0.03
1:53 pm 13:53 Cloudy with Light Rain 41 5 38 3.3 89 89 NNE 14 22 29.71 1006 9 14 0.03 0.76
2:53 pm 14:53 Cloudy 41 5 38 3.3 89 89 NNE 15 24 29.74 1007 10 16 0.00 0.03
3:51 pm 15:51 Cloudy 43 6 39 4 87 87 N 14 22 29.76 1008 10 16 0.00 0.00
3:53 pm 15:53 Cloudy 42 5.6 39 3.9 89 89 N 15 24 29.75 1007 10 16 0.00 0.00
4:09 pm 16:09 Cloudy 42 5.6 39 3.9 89 89 NNW 14 22 29.76 1008 10 16 0.00 0.00
4:35 pm 16:35 Cloudy 42 5.6 39 3.9 89 89 NNW 13 20 29.77 1008 10 16 0.00 0.00
4:53 pm 16:53 Cloudy 43 6.1 39 3.9 86 86 NW 12 19 29.76 1008 10 16 0.00 0.00
5:53 pm 17:53 Cloudy 42 5.6 39 3.9 89 89 NNW 12 19 29.78 1008 10 16 0.00 0.00
6:35 pm 18:35 Cloudy 43 6.1 39 3.9 86 86 N 14 22 29.79 1009 10 16 0.00 0.00
6:53 pm 18:53 Cloudy 42 5.6 39 3.9 89 89 N 14 22 29.79 1009 10 16 0.00 0.00
7:53 pm 19:53 Cloudy with Mist and Fog 41 5 39 3.9 93 93 NNW 13 20 29.80 1009 6 10 0.00 0.00
8:15 pm 20:15 Cloudy with Mist and Fog 41 5 39 3.9 93 93 NNW 8 13 29.83 1010 4 6 0.00 0.00
8:53 pm 20:53 Cloudy 40 4.4 39 3.9 97 97 NW 7 11 29.84 1011 10 16 0.00 0.00
9:53 pm 21:53 Cloudy 40 4.4 38 3.3 93 93 NNW 8 13 29.85 1011 10 16 0.00 0.00
10:53 pm 22:53 Cloudy 40 4.4 38 3.3 93 93 NNW 5 7 29.85 1011 10 16 0.00 0.00
11:17 pm 23:17 Cloudy 40 4.4 38 3.3 93 93 NNW 5 7 29.87 1011 10 16 0.00 0.00
11:28 pm 23:28 Cloudy 39 3.9 38 3.3 96 96 Calm 29.86 1011 10 16 0.00 0.00
11:53 pm 23:53 Cloudy 39 3.9 38 3.3 96 96 W 3 6 29.84 1011 10 16 0.00 0.00

Powered by AerisWeather